Tracking 19485 objects as of 21-Jan-2019
HD Live streaming from Space Station
objects crossing your sky now

INTELSAT 905

Track INTELSAT 905 now!
INTELSAT 905 is classified as:


NORAD ID: 27438
Int'l Code: 2002-027A
Perigee: 35,781.8 km
Apogee: 35,805.7 km
Inclination: 0.1 °
Period: 1,436.1 minutes
Semi major axis: 42164 km
RCS: 11.535 m2 (large)
Launch date: June 5, 2002
Source: International Telecommunications Satellite Organization (ITSO)
Launch site: FRENCH GUIANA (FRGUI)

76 C-band, 22 Ku-band, broadcasting, business services, direct-to-home TV broadcasting, telecommunications, VSAT networks; Atlantic Ocean region.
aabbcc
Your satellite tracking list
Your tracking list is empty




NASA's NSSDC Master Catalog

Two Line Element Set (TLE):
1 27438U 02027A   19020.77799087 -.00000187 +00000-0 +00000-0 0  9998
2 27438 000.0941 105.6639 0002843 181.3901 088.3632 01.00271725024258
Source of the keplerian elements: AFSPC